Location: Unspecified
(32.7700°N, 0.0000°E)
Time: 02:49:18
(UTC+00:00)

CSL-04 DEB - Visible Passes

Search period start: 05 April 2026 00:00
Search period end: 15 April 2026 00:00
Orbit: 662 x 758 km, 98.5° (Epoch: 29 March)

Date Brightness Start Highest point End Pass type
(mag) Time Alt. Az. Time Alt. Az. Time Alt. Az.
5 Apr 6.3 20:41:45 28° NNE 20:41:45 28° NNE 20:44:13 10° N visible
6 Apr 6.9 19:48:11 12° NE 19:48:11 12° NE 19:49:26 10° NE visible
6 Apr 6.9 21:27:13 25° NNW 21:27:13 25° NNW 21:29:18 10° NNW visible
7 Apr 6.2 20:33:39 28° NNE 20:33:39 28° NNE 20:36:20 10° N visible
7 Apr 7.9 22:12:41 11° NW 22:12:41 11° NW 22:12:59 10° NW visible
8 Apr 7.0 19:40:06 11° ENE 19:40:06 11° ENE 19:40:39 10° NE visible
8 Apr 6.6 21:19:08 29° NNW 21:19:08 29° NNW 21:21:36 10° NNW visible
9 Apr 6.2 20:25:34 26° NE 20:25:34 26° NE 20:28:23 10° N visible
9 Apr 7.6 22:04:36 14° NW 22:04:36 14° NW 22:05:38 10° NW visible
10 Apr 6.2 21:11:02 35° NNW 21:11:02 35° NNW 21:13:51 10° NNW visible
11 Apr 6.3 20:17:27 24° NE 20:17:27 24° NE 20:20:23 10° NNE visible
11 Apr 7.4 21:56:29 18° NW 21:56:29 18° NW 21:58:09 10° NW visible
12 Apr 5.9 21:02:55 40° N 21:02:55 40° N 21:06:04 10° N visible
13 Apr 6.4 20:09:21 21° NE 20:09:21 21° NE 20:12:20 10° NNE visible
13 Apr 7.1 21:48:23 22° NW 21:48:23 22° NW 21:50:36 10° NW visible
14 Apr 5.7 20:54:48 43° N 20:54:48 43° N 20:58:13 10° N visible
